Zurück zum Katalog

COSMOS 2499 DEB

AktivPO
NORAD 56573·DEBRIS·🇷🇺 Russia

Gestartet May 23, 2014 von Plesetsk Cosmodrome

Loading…

Nächste Überflüge (nächste 24 Stunden)

TLE

AktuellSource: Space-Track

Epoche: Sep 11, 2026, 06:39 UTC

1 56573U 14028BG  26254.27723324  .00006885  00000-0  85482-2 0  9996
2 56573  82.2288  93.7406 0355454 259.0829  97.0129 13.41223688176727

Verfolge COSMOS 2499 DEB in Echtzeit mit AllMySat

Download on the App Store